Showing default

COSMOS 192, 3047

Orbit data source: Space-Track

COSMOS 192, 3047 is a payload satellite owned by OKB-10 (CIS) in LEO that was launched on Thu, 23 Nov 1967 UTC via a KOSMOS 11K65M launch vehicle from the Plesetsk Missile And Space Complex (PKMTR). Payload-class satellites include a variety of spacecraft equipped with specific instruments for various scientific and technological missions. These include communications satellites like Starlink; space stations such as the ISS; scientific satellites like the Hubble; Earth observation satellites from companies like Planet Labs, Umbra, and HawkEye 360; GPS; miniature CubeSats for education and research; and military/defense satellites.

Loading next visibility...
Identifier
3047, 1967-116A
Orbit
LEO
Country
Flag of CISCIS
Related business
Manufacturer
OKB-10
Mission
Spacecraft
Bus & Motor
KAUR-1 11F617, Unknown motor
Mass
775 kg wet, 775 kg dry
Launch date (UTC)
1967-11-23 (58 years ago)
Launch vehicle
KOSMOS 11K65M
Launch site
Plesetsk Missile And Space Complex (PKMTR)
Object type
Payload
Rocket body
Debris
Shape & HBR
Unknown
Radar Cross Section
Large (>1 m²)

Expand to show TLE details & history
Last TLE update: 7 hours ago

TLE from 7 hours ago
0 COSMOS 192
1 03047U 67116A   26105.26963011  .00000128  00000-0  34575-4 0  9996
2 03047  74.0103 135.4191 0009207 311.5184  48.5190 14.57549888 89469
Epoch: 2026-04-15T06:28Z
TLE epoch observation values (Epoch: 2026-04-15T06:28:16.041Z)
Latitude
0.00003°
Longitude
-165.08167°
Altitude
699.417 km
Speed
7.509 km/s
True Right ascension
09h 01m 40s
True Declination
0° 00' 00"
Sunlit
Object was in daylight at epoch
Visualization orbit readout
Latitude
Unknown
Longitude
Unknown
Altitude
Unknown
Speed
Unknown
Apparent Right ascension
Unknown
Apparent Declination
Unknown
Sunlit
N/A
Visualization observer readout
Local Sidereal Time
19:55:21
Azimuth
Unknown
Elevation
Unknown
Doppler factor
Unknown
Orbital elements
Apogee altitude
705.214 km
Perigee altitude
692.183 km
Semi-major axis
7,076.836 km
Eccentricity
0.00092
Inclination
74.0103°
RAAN
135.4191°
Arg. of periapsis
311.5184°
True anomaly
48.5981°
Mean anomaly
48.519°
Eccentric anomaly
48.55854°
Mean motion
3.64573 °/min
Orbital period
98.75 mins
BSTAR
0.000034575
Loading maneuver chart data...
Computing Atmospheric mass density...
Loading historical data...
Loading historical data...
Loading historical data...
Loading historical data...
Loading historical data...
Loading historical data...
Loading historical data...

Documentation

Showing up to 5 results
|